Theta_e
318 317 319 317 317 317 318 322 324 325 327 330 329 325 320 322 327 328 324 324 325 324 325 323 321 322 321 319 318 317 317 317 316 316 315 315 317 320 321 321 320 321 321 322 322 322 323 324 324 324 324 324 323 322 322 322 323 323 321 321 321 321 321 322 322 323 321 319 320 321 321 321 321 320 320 318 314 311 314 316 315 316 318 317 316 316 317
318 316 319 317 316 317 318 319 320 320 322 324 323 321 319 319 321 321 320 320 318 317 318 317 317 316 315 313 312 311 311 311 311 311 310 310 312 314 316 316 317 318 319 321 321 322 323 323 323 323 323 323 322 323 323 323 323 324 322 322 322 322 322 322 322 323 322 320 320 321 321 321 321 320 320 319 316 313 315 317 317 317 318 318 317 316 316
320 318 320 317 315 318 317 316 316 318 320 320 321 321 320 320 318 316 316 318 315 313 311 311 311 311 310 308 307 307 307 307 308 307 307 307 308 309 309 311 312 314 316 318 320 321 322 322 323 323 323 323 322 322 323 323 323 323 322 322 323 323 323 323 323 324 323 322 321 321 320 321 321 320 320 320 318 316 317 319 319 319 319 319 318 317 316
320 318 319 317 316 319 320 317 315 316 319 321 321 321 321 321 318 315 317 318 315 312 311 308 308 308 307 306 305 305 305 305 306 305 305 305 306 306 306 307 309 311 312 313 315 317 319 321 322 322 322 322 322 321 321 321 321 321 321 321 322 323 323 324 324 324 324 323 322 320 320 322 322 321 321 321 320 318 318 319 319 319 319 319 319 318 317
320 318 318 318 320 323 321 317 313 313 318 321 322 321 319 318 318 318 319 316 311 311 310 307 305 306 305 305 304 304 304 304 304 304 304 304 304 304 305 306 307 308 308 309 310 312 314 316 318 319 321 320 319 319 319 320 320 320 320 320 321 322 322 323 323 323 323 323 323 322 322 323 323 323 322 322 321 319 318 318 318 319 319 319 319 319 318
321 318 317 319 322 322 318 314 311 311 316 320 320 318 316 315 316 315 314 310 307 307 306 304 303 303 303 303 303 303 303 303 303 303 303 304 304 304 305 305 306 306 307 307 307 308 310 311 313 316 318 315 313 314 315 315 316 316 317 317 318 319 320 321 321 321 322 321 321 321 321 321 321 322 322 322 321 320 319 319 318 320 320 320 319 319 319
320 318 319 321 320 317 315 313 310 309 313 315 314 313 311 310 311 310 309 308 306 305 303 302 302 302 302 303 303 303 304 304 304 305 305 305 305 305 306 306 306 306 306 307 307 307 307 308 309 312 312 311 310 310 311 311 311 312 312 312 313 313 315 316 316 318 319 319 319 319 319 319 319 319 319 320 320 318 318 318 318 319 320 321 320 320 320
319 319 321 320 316 314 315 314 309 308 311 313 313 314 311 308 309 308 308 306 305 304 303 302 302 303 303 303 303 303 304 304 305 305 306 306 307 307 307 308 307 307 306 307 307 307 307 308 308 309 310 310 310 310 310 310 311 311 311 311 311 311 311 312 312 314 315 316 317 317 317 317 317 317 317 317 316 316 317 318 318 318 318 318 318 318 318
318 319 318 316 315 314 315 314 309 308 309 311 313 314 311 308 307 306 305 305 304 304 303 303 303 304 304 304 303 303 304 304 305 305 305 306 307 307 308 308 308 308 307 306 306 307 308 308 308 308 309 310 311 311 311 311 311 311 312 312 311 311 311 311 311 312 312 313 314 314 314 315 316 317 318 318 318 318 319 319 320 319 317 316 315 315 315
317 318 315 315 317 315 313 312 310 307 307 308 310 313 312 308 306 304 303 303 303 303 304 304 305 306 307 305 304 303 302 303 303 303 303 303 304 304 304 305 306 306 306 306 306 306 308 308 307 308 308 309 310 311 311 311 311 311 312 311 311 311 311 311 311 311 311 312 312 312 313 314 314 315 316 317 317 318 318 318 317 316 315 315 315 314 314
318 319 317 316 317 314 311 312 310 307 307 308 310 315 315 309 305 304 303 303 303 304 304 305 306 307 307 305 303 303 302 302 302 301 301 301 301 302 302 302 303 303 305 305 306 307 307 306 305 306 307 309 309 310 310 310 310 310 310 310 310 310 310 310 310 310 310 310 311 311 312 312 313 313 314 314 314 315 315 314 314 314 314 314 313 313 313
316 317 315 314 313 312 310 311 309 307 306 308 312 317 316 309 305 305 304 303 304 304 305 306 306 307 306 304 303 302 301 301 301 301 301 301 301 301 301 301 301 301 303 305 307 307 306 304 303 304 305 307 308 308 307 308 309 309 308 308 308 308 309 310 310 310 309 309 309 310 310 310 311 311 312 312 312 313 313 313 313 313 313 313 312 313 313
314 314 313 312 311 311 308 307 307 306 307 310 314 316 313 308 305 305 304 304 305 306 306 306 305 305 304 303 302 301 300 300 300 300 301 301 301 301 301 301 300 300 301 303 305 305 303 302 303 303 304 306 306 304 303 304 304 304 303 303 304 305 305 306 307 307 307 308 307 307 307 307 308 308 309 310 310 311 311 311 312 312 312 312 313 313 313
313 313 312 311 311 308 305 305 306 307 310 314 314 310 308 307 306 306 306 306 307 307 306 305 304 303 303 303 302 301 301 300 300 299 300 301 301 301 301 301 301 300 299 299 300 300 300 300 300 301 302 303 303 302 302 302 301 300 300 300 300 300 300 300 301 301 301 302 302 302 302 302 302 303 304 305 306 306 307 307 307 308 309 310 311 312 312
312 312 311 312 312 307 304 306 308 308 310 312 309 306 306 306 305 305 305 306 306 306 304 303 303 304 303 303 302 301 301 301 300 300 299 300 301 301 301 301 300 300 299 298 298 298 298 298 298 298 299 299 299 299 300 300 300 299 299 299 299 299 298 298 299 299 299 299 299 299 299 299 299 299 299 299 300 301 301 302 302 302 303 304 306 308 310
311 312 310 308 307 304 302 305 307 306 306 307 305 304 304 304 304 304 304 303 304 305 303 302 302 302 302 302 301 301 301 301 300 300 300 299 299 300 300 300 300 300 299 299 299 299 299 299 299 298 298 299 299 299 299 299 299 299 299 299 299 298 298 298 298 298 298 299 299 299 299 299 299 299 299 298 298 299 299 300 301 302 302 302 303 304 305
307 308 306 304 303 302 302 303 303 303 304 305 305 304 303 303 303 303 302 302 302 302 302 301 301 301 301 301 301 300 300 299 299 299 299 298 298 299 299 300 300 300 299 299 299 299 299 299 299 298 299 299 298 298 298 298 298 298 298 298 298 298 298 298 298 298 298 298 298 298 298 298 298 299 299 299 299 298 299 299 300 301 302 302 303 303 303
304 305 304 302 302 302 302 303 302 303 304 304 304 304 303 302 303 302 302 302 301 301 302 301 301 300 300 300 300 299 299 299 299 299 299 299 299 299 299 300 299 299 299 299 299 299 299 299 299 298 298 298 297 297 297 297 297 297 297 297 297 297 297 297 297 297 297 297 297 297 297 297 297 298 298 298 299 299 299 299 299 299 300 301 301 302 303
306 305 303 302 302 302 302 303 303 303 303 303 303 303 303 302 302 302 302 302 302 302 302 301 301 301 300 300 300 300 300 300 300 299 299 299 299 299 299 299 299 299 299 299 298 298 298 299 299 298 298 297 297 297 297 297 297 297 297 297 297 297 297 297 297 297 297 297 297 297 296 296 296 297 297 297 298 298 298 299 299 299 299 300 300 301 301
307 306 303 301 302 302 302 303 303 303 304 304 303 303 303 303 303 303 303 303 303 303 302 301 301 301 300 300 301 301 301 300 300 300 300 299 299 299 299 299 299 299 299 298 298 298 298 299 298 298 297 296 296 297 297 296 296 297 298 298 297 297 297 297 297 297 297 296 296 296 296 296 296 296 296 296 296 297 297 298 298 298 299 299 299 300 300
305 304 302 301 302 301 301 302 302 302 303 303 303 303 303 303 303 302 302 302 302 302 301 301 300 300 300 300 301 301 300 300 300 300 300 299 299 299 299 299 299 298 298 298 298 298 298 298 298 297 297 297 297 297 297 296 296 297 298 298 298 298 297 297 297 297 296 296 296 295 295 295 295 295 295 295 295 295 296 296 296 297 297 298 299 299 299
306 305 302 303 304 303 301 301 301 301 301 301 301 301 301 302 302 302 301 301 301 301 300 300 300 300 300 300 300 300 300 300 300 300 300 299 299 299 299 299 298 298 297 297 297 298 297 297 297 297 297 297 297 297 297 296 296 296 297 297 297 296 296 296 295 295 295 295 295 295 295 295 295 295 295 295 294 294 295 295 295 295 295 296 297 298 298
307 306 303 303 304 303 301 301 301 301 300 300 300 300 300 300 300 300 301 301 301 300 300 300 300 300 300 300 300 300 300 300 299 299 299 299 299 299 299 299 298 298 298 298 297 297 297 297 297 298 297 297 297 297 297 296 296 296 296 296 296 296 295 295 295 295 294 294 294 294 294 294 294 294 295 295 295 295 295 295 295 295 295 295 295 296 296
305 304 303 303 303 302 302 302 301 301 301 300 300 300 300 300 299 299 300 300 300 300 300 299 299 299 299 299 299 299 299 299 299 299 299 299 299 299 299 299 298 298 298 298 297 297 297 297 298 298 298 298 298 297 297 296 296 296 296 296 296 296 296 296 295 295 294 294 294 294 294 294 294 294 295 295 295 295 295 295 295 295 295 295 295 295 295
304 304 304 303 303 302 302 302 301 301 301 300 300 300 300 300 299 299 299 299 299 299 299 299 298 298 298 298 298 298 298 298 298 299 298 298 299 299 299 299 298 298 298 298 297 297 298 298 298 298 297 297 298 297 297 297 297 296 296 296 296 296 296 296 295 295 295 294 294 294 294 294 294 294 294 295 295 295 295 295 295 295 295 295 295 294 294
303 303 303 303 302 302 302 301 301 301 301 300 299 300 300 299 299 298 298 298 298 299 298 298 298 297 297 297 297 297 298 298 298 298 298 298 298 298 298 298 298 298 298 297 297 297 298 298 298 298 298 298 298 297 297 297 297 296 295 295 295 295 295 295 295 295 294 294 294 294 294 294 294 294 294 294 294 295 295 295 295 296 295 295 294 294 294
303 302 302 301 300 300 301 300 300 300 300 299 299 298 298 298 298 298 297 297 297 298 298 297 297 296 296 296 296 296 296 297 297 297 298 298 298 298 298 298 298 298 298 297 297 298 298 298 298 298 298 298 298 297 297 297 296 296 295 295 295 295 295 295 295 295 294 294 294 294 294 294 294 293 294 294 294 294 294 294 295 296 296 296 295 295 294
302 302 301 300 300 300 300 300 299 299 298 298 298 298 297 297 297 297 297 297 297 297 297 296 296 296 296 296 296 295 295 296 297 297 297 297 297 298 298 298 298 298 297 297 297 298 298 298 298 298 298 298 298 297 297 297 296 296 296 295 295 294 295 295 295 295 294 294 294 294 294 295 294 294 294 294 294 294 294 294 294 295 296 296 296 296 295
300 300 300 300 300 299 299 299 299 298 298 298 298 298 298 297 297 297 297 296 297 297 296 296 296 296 296 296 295 295 295 295 296 296 296 297 297 297 297 297 297 297 297 297 297 298 298 298 298 298 298 298 298 297 297 297 296 296 296 295 294 294 294 295 295 294 294 294 294 295 295 296 295 295 295 295 295 295 295 295 295 296 296 296 297 296 296
299 299 299 299 299 299 299 299 299 298 298 298 298 298 298 297 297 297 297 297 297 297 296 296 296 296 295 295 295 295 296 295 295 295 295 295 295 296 297 297 297 297 297 297 297 298 298 298 298 298 298 298 297 297 297 297 297 296 296 295 295 294 294 295 294 293 294 295 295 295 296 296 296 296 296 296 296 296 296 296 296 296 297 297 297 297 297
299 298 298 299 298 298 298 298 298 298 298 298 298 298 297 297 297 297 297 297 297 297 296 296 296 295 295 295 295 295 295 295 294 293 292 292 292 293 294 296 297 297 297 297 298 298 298 298 297 297 298 297 297 297 297 297 297 296 296 296 295 294 294 294 294 294 294 295 295 295 296 296 296 296 296 296 296 296 297 296 296 296 296 297 297 298 298
299 299 299 298 298 298 298 298 298 298 298 298 298 297 297 297 297 297 297 297 296 296 296 296 295 295 295 295 295 295 295 293 292 291 290 290 291 293 294 295 296 296 297 297 297 297 297 297 297 297 297 297 297 297 297 297 297 296 296 296 295 294 294 294 294 294 295 295 295 295 295 295 296 296 296 296 296 296 296 296 296 296 296 297 297 297 297
299 299 299 299 298 298 298 298 298 298 298 298 298 297 297 297 297 297 297 296 296 296 296 296 295 295 295 295 295 295 294 292 290 289 289 290 292 294 295 295 296 296 296 297 297 297 297 297 297 297 297 297 296 297 297 297 296 296 296 295 295 295 294 294 294 294 295 295 295 294 294 294 295 295 296 296 296 296 295 295 295 296 296 297 297 297 297
299 299 299 299 298 298 298 297 298 298 298 298 297 297 297 297 297 297 297 296 296 296 296 295 295 295 295 296 295 294 292 290 289 289 289 290 292 294 295 295 296 296 296 297 297 297 297 297 297 297 297 296 296 297 297 297 296 296 296 295 295 295 295 294 294 294 294 294 294 294 293 293 294 294 295 295 295 295 295 295 295 296 297 297 297 297 297
299 299 299 299 298 298 297 297 297 297 297 297 297 297 297 297 297 297 297 296 296 296 295 295 296 296 295 295 294 292 290 289 288 289 289 290 291 293 294 295 296 296 296 296 297 297 297 297 297 297 296 296 296 297 297 296 296 296 296 295 295 295 295 295 295 294 294 294 294 294 294 293 293 294 294 295 295 296 295 295 296 296 297 296 296 296 297
299 299 298 298 298 298 297 297 297 297 297 297 297 297 297 296 296 297 297 296 296 296 295 295 296 296 295 294 293 292 292 291 290 289 289 289 289 291 293 295 296 296 296 297 297 297 297 297 297 296 296 296 297 297 297 296 296 296 296 295 295 295 295 295 295 295 295 294 293 293 293 293 293 293 294 294 295 296 296 296 296 296 296 296 296 296 296
298 298 298 298 297 298 297 297 297 297 297 297 297 297 297 296 296 297 297 296 296 296 295 295 295 295 294 294 293 293 294 294 293 291 290 290 289 290 292 294 295 296 296 297 296 296 297 297 296 295 295 296 296 296 296 296 296 296 296 296 295 295 295 295 295 295 295 294 293 293 293 292 292 293 294 294 295 295 296 296 296 296 296 295 295 295 295
298 298 298 298 298 298 297 297 297 297 297 297 297 297 297 297 297 297 297 296 296 296 296 295 295 295 294 294 294 294 294 294 294 293 291 290 290 291 292 294 295 295 296 296 296 296 297 296 295 294 294 295 296 296 296 296 296 296 296 296 295 295 295 295 295 295 294 293 293 292 292 292 292 293 294 295 295 295 295 296 296 295 295 295 295 295 295
298 298 298 298 298 298 297 297 297 297 297 297 297 297 297 297 296 296 296 296 295 295 295 295 295 295 295 294 293 293 294 294 294 293 291 289 290 293 294 294 295 295 296 296 296 296 296 296 294 293 293 294 294 295 296 296 296 296 296 296 295 295 294 295 296 295 294 293 292 292 292 292 293 293 294 295 295 295 295 295 296 295 295 295 295 295 295
298 298 298 298 298 298 297 297 297 297 297 297 297 297 297 296 296 296 295 295 295 295 295 295 295 295 295 294 293 293 294 294 294 293 291 289 291 294 295 295 295 295 295 295 295 295 296 295 293 292 292 292 292 294 295 296 296 296 296 296 295 295 294 295 295 295 294 293 293 293 293 293 293 293 294 295 295 295 295 295 295 295 295 295 295 295 295
298 298 298 298 298 297 297 297 297 297 297 297 297 297 297 296 296 296 296 296 296 295 295 295 295 295 295 295 294 294 294 294 293 292 291 291 293 295 295 295 295 295 295 295 295 295 294 293 291 290 290 290 292 294 296 296 296 296 296 296 295 295 294 294 295 295 295 294 294 293 294 294 294 294 294 294 294 295 295 295 295 295 295 295 294 294 295
298 298 298 298 298 298 298 297 297 297 297 297 297 297 296 296 296 296 296 296 296 296 295 296 295 295 295 295 294 294 293 292 292 292 292 292 293 295 295 295 295 295 295 295 294 293 292 291 291 291 290 290 293 295 295 295 295 296 296 296 295 295 295 294 294 295 295 295 294 294 293 294 294 294 294 294 294 294 294 295 295 295 295 295 295 294 294
298 298 298 298 298 298 298 298 297 297 297 297 297 297 297 297 297 296 296 296 296 296 296 296 295 295 295 295 294 294 293 291 291 292 292 292 293 294 295 295 295 295 295 294 292 291 290 291 292 291 290 290 292 295 295 294 295 296 296 295 295 295 295 295 294 294 294 295 295 294 293 293 293 294 294 294 294 294 294 294 294 295 295 295 295 295 294
298 297 298 298 298 298 298 298 298 298 297 297 297 297 297 297 297 297 296 296 296 296 296 296 296 296 295 295 294 294 293 292 292 293 292 292 293 293 294 294 294 294 293 291 290 289 289 290 291 291 290 289 291 293 294 295 295 296 295 295 295 295 295 294 294 293 293 294 294 294 294 293 292 293 293 293 293 293 293 294 294 294 294 294 294 294 294
298 297 297 297 298 298 298 298 298 298 297 297 297 297 297 297 297 297 297 297 297 296 296 296 296 296 295 295 295 294 293 293 292 293 293 292 293 293 293 293 293 292 291 290 288 288 288 289 290 290 290 289 289 291 293 294 294 295 295 295 295 295 294 294 293 292 292 292 292 293 294 294 293 292 292 293 293 293 293 293 293 293 294 294 294 294 294
298 298 297 297 297 298 298 298 298 298 297 297 297 297 297 297 297 297 297 297 297 296 296 296 296 296 296 295 295 294 294 293 293 292 292 292 292 292 292 293 293 293 293 291 289 287 287 288 288 289 289 288 288 290 292 292 293 293 294 295 294 294 294 294 293 292 291 291 290 291 292 293 293 292 292 292 293 292 292 293 293 293 293 293 293 293 293
297 297 297 297 297 297 298 298 297 297 297 297 297 297 297 297 297 297 297 297 297 297 297 297 297 296 296 296 296 295 295 294 294 293 292 292 292 292 292 292 292 292 293 292 289 288 287 288 288 288 288 288 288 289 290 290 290 291 292 293 294 294 294 293 293 292 291 290 290 290 290 290 291 291 292 292 292 292 292 293 293 293 293 293 293 293 293
297 297 297 298 297 297 298 298 297 297 297 297 297 297 297 297 297 297 297 297 297 297 297 297 297 297 297 296 296 296 296 295 294 294 293 293 292 292 292 292 291 290 290 289 288 287 287 287 287 287 287 288 288 288 289 289 289 290 291 291 292 293 293 293 292 291 290 289 289 289 289 288 289 290 291 291 292 292 293 293 293 293 293 293 293 293 293
298 298 298 298 298 297 298 297 297 297 297 297 297 297 297 297 297 297 297 297 296 296 297 297 297 297 297 296 296 296 296 295 295 295 294 293 293 292 292 291 290 289 288 288 288 287 287 287 287 287 287 288 288 289 289 289 289 289 289 289 290 291 291 291 290 289 289 288 289 289 288 288 288 288 289 290 291 291 291 292 292 292 292 292 292 293 293
298 298 298 298 298 297 297 297 297 297 297 297 297 297 297 297 297 297 297 297 296 296 297 297 296 296 296 296 297 297 296 295 294 295 294 293 293 293 293 292 291 289 288 287 288 288 287 287 287 288 288 288 288 288 289 289 289 288 288 288 288 289 289 289 288 288 288 288 288 288 288 288 288 288 288 289 289 289 290 290 290 290 290 290 290 291 292
298 297 298 298 298 297 297 297 297 297 297 297 297 296 296 296 296 297 297 297 296 296 296 296 296 296 296 296 296 297 296 295 294 294 294 294 293 292 292 292 290 289 288 288 288 288 288 288 288 288 288 288 288 288 288 288 288 288 288 288 287 288 288 288 288 288 288 288 288 288 288 288 288 288 288 288 288 288 288 289 289 289 289 289 289 289 290
298 298 298 298 298 297 297 297 297 297 297 297 297 297 296 296 296 296 296 296 296 296 296 296 296 296 296 296 296 296 296 295 294 294 294 294 293 293 292 291 290 288 288 288 288 288 288 288 288 288 288 288 288 288 288 288 288 288 288 288 287 287 288 287 288 288 288 288 288 288 288 288 288 288 288 288 288 288 288 288 288 288 288 288 288 289 289
Wind_Speed
8 5 1 5 7 7 6 6 6 6 8 9 8 3 2 2 4 4 7 9 8 5 7 8 6 6 7 7 11 16 18 20 22 23 24 25 26 25 23 21 19 19 20 18 16 15 15 14 14 13 12 11 9 7 5 5 5 6 6 6 6 6 8 11 13 13 16 20 21 19 17 16 16 15 14 12 11 13 13 12 14 14 12 12 12 13 13
9 11 8 3 8 10 8 8 6 5 8 10 9 7 7 9 8 6 10 10 7 3 3 5 7 9 13 16 19 22 22 22 24 25 25 25 26 27 26 25 23 22 22 20 18 17 16 15 14 15 15 14 13 11 9 7 7 6 6 5 5 5 7 10 13 13 15 19 21 20 17 17 17 15 14 12 12 13 13 13 14 14 13 13 13 14 15
6 10 10 5 9 14 11 10 10 8 6 7 7 7 8 10 9 8 9 8 5 4 5 7 10 14 18 20 21 21 20 22 27 28 27 28 28 28 29 30 29 27 26 23 21 20 19 18 18 18 18 17 16 16 15 13 12 11 9 8 7 7 9 12 14 14 14 17 19 19 17 16 16 15 14 13 12 13 14 14 14 14 14 14 14 15 16
3 5 7 5 6 12 10 11 12 11 5 4 3 2 4 7 9 8 6 5 2 2 4 8 12 15 18 19 18 19 19 21 26 27 26 27 28 28 30 32 32 32 31 28 26 24 21 20 20 19 19 21 20 19 19 19 18 17 16 14 13 12 11 12 13 14 16 17 17 17 17 16 16 16 15 14 14 14 15 14 13 14 15 16 16 17 17
1 4 6 5 2 6 6 7 9 9 3 3 4 3 4 5 8 8 5 3 2 2 4 8 11 12 14 16 16 17 18 20 24 26 25 26 26 27 30 32 34 34 35 35 33 30 26 24 23 20 20 22 23 21 21 20 19 19 20 19 18 16 14 12 12 12 13 13 13 14 16 16 16 16 16 16 16 17 17 16 15 14 15 17 18 19 19
1 4 6 3 4 4 2 3 6 5 2 4 7 6 5 4 4 5 6 6 7 7 6 8 9 11 15 19 19 19 21 24 26 26 26 26 26 27 29 31 33 33 34 35 35 35 33 31 29 25 24 26 27 26 25 24 23 23 23 22 21 20 18 17 15 13 12 12 10 9 10 10 11 12 14 16 18 19 18 18 17 16 15 17 19 20 20
2 2 4 4 2 0 0 2 6 6 5 7 11 10 7 6 8 10 11 10 10 10 10 13 17 21 24 26 25 24 26 27 28 28 27 26 25 25 26 28 29 29 30 32 33 33 33 33 32 31 30 29 29 28 28 27 27 26 26 25 25 24 22 20 18 16 15 14 13 12 11 10 9 9 10 12 15 16 16 16 18 18 18 18 20 21 22
2 2 3 3 1 2 2 4 6 6 6 6 9 9 7 5 6 10 11 11 11 14 16 18 21 26 29 27 23 22 23 23 23 24 23 22 22 22 23 25 26 26 27 28 28 27 27 28 30 31 29 28 27 26 26 25 25 24 24 25 25 23 22 21 19 18 15 13 11 11 10 9 9 9 8 8 8 9 8 9 12 14 13 12 14 16 18
2 3 2 2 1 2 3 4 4 3 2 2 1 4 3 5 3 7 11 11 11 14 17 19 21 25 26 20 15 17 21 20 20 21 21 19 18 17 18 19 20 20 21 20 20 20 21 22 22 22 22 22 23 23 22 21 20 19 20 21 20 19 18 17 16 15 14 12 11 10 8 6 5 5 5 6 6 6 7 8 10 10 9 8 8 9 11
2 4 3 2 1 1 1 2 3 3 5 7 3 3 2 2 4 10 13 12 12 14 17 20 19 17 15 8 4 11 18 20 21 22 22 21 18 16 17 17 16 15 15 14 14 13 14 15 14 14 14 15 17 18 17 16 14 14 14 14 14 13 13 12 10 9 10 10 9 9 8 7 6 5 6 7 8 9 10 11 11 11 11 11 10 9 9
2 4 3 1 2 2 3 5 5 6 9 9 2 4 1 1 8 14 15 15 15 17 19 19 13 7 6 2 4 10 16 18 20 21 20 20 19 17 16 16 15 14 12 11 11 9 9 11 11 9 8 8 10 11 10 9 7 7 7 7 6 6 6 6 5 4 5 5 6 6 6 6 7 7 8 9 10 11 12 12 12 13 13 14 14 13 12
3 3 2 1 1 1 3 5 7 10 11 5 3 2 2 6 13 16 17 19 20 20 18 13 5 2 5 8 10 15 18 17 17 17 16 16 16 15 13 12 11 12 10 9 8 8 8 9 8 6 5 3 4 5 5 3 1 2 2 1 1 2 3 4 5 6 6 7 7 8 9 9 10 10 11 12 13 13 13 14 15 15 16 17 17 16 15
3 3 3 1 0 2 3 6 10 12 8 1 3 4 4 10 16 16 17 22 21 16 12 9 6 9 16 20 20 21 19 17 17 16 14 14 13 12 10 8 7 8 9 8 7 7 7 6 5 3 3 2 2 3 3 2 2 3 4 4 5 7 8 9 10 11 11 12 12 13 14 15 16 16 16 17 18 18 18 18 19 18 18 19 19 18 18
2 2 2 1 0 2 8 12 11 7 3 3 3 1 6 14 18 16 15 17 15 11 15 20 21 23 25 25 22 20 18 18 17 15 14 14 13 11 9 6 4 5 6 6 6 6 5 4 2 1 2 3 2 2 3 3 3 4 6 7 8 9 9 10 10 11 12 13 14 15 16 18 19 20 20 21 22 23 24 24 24 24 24 24 24 23 22
2 2 3 2 2 6 14 13 7 5 2 4 6 10 12 15 18 17 15 15 16 19 25 28 27 26 25 23 21 21 20 17 15 14 14 13 12 10 8 6 4 4 4 4 5 4 4 2 1 1 2 3 3 3 4 4 5 7 8 9 10 10 11 11 11 11 11 12 13 14 15 16 17 18 19 21 21 22 23 24 25 25 26 26 27 28 27
2 2 2 1 2 6 13 8 4 4 4 11 17 18 17 17 20 21 20 20 23 28 31 29 28 28 27 25 23 21 18 14 12 11 11 11 10 9 8 7 5 3 4 5 5 4 4 3 2 2 3 3 2 2 3 4 7 9 10 11 12 12 12 13 13 12 12 12 13 14 14 14 15 16 17 18 19 19 20 21 22 22 22 23 24 26 28
3 4 3 2 2 8 16 17 14 13 16 20 23 24 22 21 22 24 25 24 25 28 30 29 28 27 25 23 21 18 15 12 10 8 8 8 8 8 7 7 5 4 5 6 6 5 5 4 3 3 4 4 4 5 6 8 9 10 11 12 12 12 13 13 12 12 12 12 12 12 13 13 14 14 15 16 16 17 18 19 20 21 21 21 21 22 23
6 8 6 6 8 14 19 20 19 20 22 23 25 27 26 24 24 26 27 25 24 25 26 25 23 20 18 17 15 13 12 11 9 8 9 10 10 9 8 8 6 6 6 7 7 8 8 7 7 7 7 7 8 9 11 11 12 12 12 11 11 12 12 12 11 11 11 11 11 11 12 12 12 13 14 15 16 16 17 17 18 20 21 22 22 21 21
3 4 3 5 9 14 18 20 20 21 22 23 25 26 26 25 26 25 24 22 21 19 19 20 19 16 14 14 13 12 11 11 9 9 10 10 10 8 6 6 5 4 5 6 7 9 9 8 9 9 10 11 13 15 16 17 16 15 13 12 11 11 11 9 9 9 10 10 11 11 11 12 12 12 13 15 16 17 18 18 18 19 20 21 22 22 22
3 4 5 8 13 15 16 17 18 19 20 20 21 22 22 21 21 19 17 16 15 14 14 15 16 14 12 11 12 11 10 9 8 7 6 6 6 5 4 3 3 4 4 4 6 7 8 8 9 9 11 14 16 18 19 19 18 15 13 12 10 8 8 7 8 9 11 12 12 13 13 13 12 12 12 13 14 15 16 18 19 19 21 21 22 22 23
5 5 8 11 11 10 11 16 19 19 19 18 17 16 15 15 16 15 14 12 12 12 13 12 12 13 12 10 10 10 9 8 7 4 3 3 3 3 2 2 4 4 2 3 5 6 6 7 8 9 11 14 17 19 20 19 16 13 11 10 8 7 7 8 9 10 11 13 14 14 15 14 13 12 11 12 13 13 13 14 16 18 21 22 23 23 24
2 3 8 9 6 4 8 15 18 17 18 18 17 16 15 15 16 16 15 14 13 12 12 11 12 14 14 12 12 12 11 9 6 4 5 6 4 1 0 1 3 4 4 4 5 5 5 7 8 8 10 13 15 18 20 19 17 14 11 9 9 8 9 10 11 13 13 14 14 14 15 15 14 13 11 11 12 12 12 12 13 15 18 21 23 24 25
4 9 14 11 9 9 12 15 17 16 16 16 17 17 17 16 15 15 15 15 14 13 11 10 11 13 14 13 12 12 11 8 6 5 7 9 7 4 2 2 2 4 4 4 4 5 6 7 7 7 8 10 13 17 19 19 17 16 15 13 11 11 13 13 14 15 15 14 14 14 15 16 17 17 15 13 11 11 12 13 13 14 16 18 20 22 24
6 10 14 13 14 15 14 14 16 16 14 14 15 15 15 15 14 13 13 13 14 14 13 10 8 8 9 9 8 8 8 8 6 5 6 7 8 6 5 4 2 1 1 1 2 4 5 5 5 7 7 8 12 17 18 17 17 18 17 15 13 13 14 14 15 15 15 16 17 18 19 19 19 20 20 18 16 14 13 13 13 14 15 16 18 20 22
6 8 12 13 16 17 15 14 14 13 12 11 11 12 13 12 12 12 12 12 12 12 12 12 9 7 6 6 7 7 7 7 7 6 5 6 8 9 8 5 4 4 3 2 1 3 4 4 4 5 6 7 11 15 17 17 18 19 17 14 12 13 14 14 15 15 16 18 20 20 19 18 18 19 20 19 19 18 17 16 15 14 14 16 17 19 20
12 13 14 15 16 17 16 15 13 13 12 11 10 11 11 10 9 9 10 10 11 11 11 12 10 7 5 5 6 6 7 7 7 8 6 6 9 10 9 6 6 6 6 4 4 4 3 5 4 3 4 6 11 14 16 16 17 17 14 12 11 12 13 14 14 14 15 18 18 16 15 16 17 18 18 17 17 18 19 20 19 16 14 14 14 14 16
14 14 15 16 15 14 14 14 14 14 12 10 10 11 10 9 9 8 8 9 10 10 9 9 7 6 4 2 1 1 6 9 8 7 6 7 9 11 8 7 7 7 9 7 8 5 2 5 3 2 3 7 11 13 15 15 15 13 12 13 12 12 12 12 12 13 14 15 14 13 15 16 17 17 16 16 15 15 17 19 19 17 15 13 11 9 9
11 10 10 11 12 12 11 12 13 13 11 8 8 7 6 6 7 7 8 10 10 9 9 8 6 4 3 2 5 4 2 7 7 6 5 5 7 8 8 8 7 8 8 8 11 6 1 3 2 2 5 8 11 13 15 15 14 12 12 13 13 14 13 11 11 12 11 10 12 14 15 16 17 16 15 14 13 13 14 16 16 16 15 13 11 8 6
13 11 10 10 10 10 10 10 12 11 9 8 7 6 6 6 7 10 11 11 10 9 9 8 5 3 2 1 4 5 3 1 3 5 6 6 6 7 8 9 8 8 9 9 11 7 2 1 3 4 6 9 12 14 16 15 13 14 14 14 15 15 14 12 11 9 8 8 11 13 14 16 18 18 15 13 13 14 15 15 15 15 14 12 11 9 5
15 14 13 12 11 9 8 10 12 10 9 9 9 8 7 7 9 13 15 13 10 9 8 7 5 1 1 2 4 5 4 2 3 5 7 9 11 13 14 14 12 11 11 12 12 9 4 3 3 4 7 10 13 15 15 13 12 14 14 14 16 16 14 11 9 7 7 9 11 12 13 15 17 18 17 16 16 16 17 16 15 14 13 12 11 10 7
13 12 11 11 11 8 7 9 11 11 10 11 11 10 9 9 11 15 17 15 12 10 8 6 3 2 4 4 5 5 5 5 7 8 10 12 13 14 17 18 18 15 13 14 14 10 7 5 4 5 7 11 14 15 13 11 12 13 13 13 15 16 12 8 6 6 7 9 10 11 13 14 14 15 16 16 17 18 18 18 16 14 13 11 10 10 10
10 8 7 7 8 7 5 6 9 12 13 13 11 9 8 8 11 15 16 13 9 8 7 4 2 5 5 6 7 7 8 10 11 11 11 12 12 13 14 17 19 18 16 15 15 13 9 7 6 5 7 11 12 12 10 9 11 12 11 12 15 14 10 7 5 5 6 7 8 9 11 12 12 13 14 15 16 18 18 17 16 15 14 14 13 13 13
9 9 7 5 5 4 3 4 8 13 15 12 9 8 7 7 9 12 13 10 7 6 5 3 4 5 6 8 9 9 11 12 12 11 10 10 10 10 11 14 18 19 18 17 17 15 11 9 6 5 7 10 10 9 7 8 11 11 11 13 14 13 9 6 5 4 5 6 8 10 10 11 12 12 13 15 17 17 15 15 15 15 15 15 16 16 14
6 7 7 6 5 4 3 4 9 12 12 9 7 6 6 7 8 9 9 7 5 4 5 5 5 6 7 8 9 11 12 11 9 8 8 9 9 9 9 11 15 19 18 18 18 16 12 9 6 4 8 10 9 7 7 8 10 10 11 13 14 12 9 7 6 5 5 6 9 10 12 13 13 12 13 15 15 14 13 13 14 14 15 15 16 15 13
6 5 5 7 8 7 5 6 8 9 8 7 6 6 5 7 8 8 7 7 6 7 8 8 7 7 8 8 8 9 8 6 5 6 7 7 8 9 9 10 13 18 18 17 17 15 12 9 5 5 9 10 8 6 6 7 9 9 10 12 13 11 8 7 7 7 6 8 9 10 13 16 15 11 12 14 13 12 12 12 13 14 16 16 16 15 14
6 6 7 10 10 8 6 6 7 7 5 4 5 6 6 6 8 10 11 10 8 6 7 8 9 9 9 7 5 5 4 3 3 3 4 6 8 9 9 9 12 17 19 18 16 14 12 9 6 6 9 9 8 6 5 7 8 8 8 11 13 11 8 7 8 7 8 9 9 10 12 14 11 8 10 12 12 11 11 12 13 14 16 16 15 14 14
4 6 8 8 6 3 4 6 6 5 4 3 4 6 8 8 9 12 13 11 8 6 7 8 9 10 9 6 4 4 5 4 4 3 3 5 7 8 9 10 11 16 19 18 15 13 12 9 7 8 10 10 8 6 5 6 7 6 6 9 12 12 9 7 7 7 8 9 8 9 10 9 6 6 8 10 11 10 10 10 11 13 15 15 15 15 14
3 5 5 5 4 2 3 5 5 4 5 4 3 5 8 8 9 11 13 11 8 8 8 9 9 9 7 5 4 5 6 6 5 6 6 6 7 8 9 9 11 14 18 17 14 14 12 9 8 10 11 10 9 7 5 6 6 5 5 7 11 13 12 9 7 7 7 6 5 6 7 7 5 4 5 7 9 9 9 9 10 11 13 14 15 14 13
2 4 5 8 7 3 4 5 5 4 5 5 4 5 6 6 8 11 13 11 9 9 10 10 10 9 7 5 4 5 6 6 6 6 6 6 7 7 8 9 11 14 16 15 14 13 12 9 9 11 11 10 9 7 6 6 6 5 5 6 9 12 13 12 9 6 5 6 7 7 7 7 6 5 4 5 6 7 7 8 9 10 11 12 12 11 10
1 2 3 7 9 6 4 5 5 4 5 6 5 5 4 4 5 8 10 10 10 10 10 10 11 9 7 5 4 5 6 6 5 5 6 7 7 7 8 9 11 14 14 13 12 12 11 9 9 10 9 9 9 8 7 7 6 5 4 4 7 10 11 11 11 10 9 10 10 9 8 8 8 7 6 6 6 6 6 8 9 9 8 9 9 8 8
8 8 8 7 10 8 4 3 1 2 4 5 5 5 5 5 5 5 7 8 9 9 8 9 10 10 7 6 6 6 6 6 5 5 6 6 5 5 6 7 10 13 13 11 11 11 10 9 9 9 8 9 9 8 8 8 8 6 3 2 4 8 9 9 9 9 10 10 10 10 10 9 9 9 8 7 7 7 6 6 7 6 7 8 8 8 8
9 8 7 6 9 11 10 7 3 3 3 3 4 5 5 6 7 8 7 8 9 9 8 9 9 9 8 7 6 6 7 6 5 5 5 5 4 4 4 5 9 12 11 10 9 10 10 9 9 9 9 10 10 10 9 8 9 6 3 1 2 5 8 9 8 8 8 8 8 9 9 9 9 9 8 8 8 7 5 5 5 5 6 7 8 8 9
7 6 6 6 8 10 12 11 10 8 6 5 5 7 8 7 8 9 10 11 9 7 6 7 8 9 9 9 9 7 6 5 4 4 4 3 3 4 4 5 8 9 8 7 8 10 11 9 9 10 10 10 11 11 8 7 7 7 5 3 1 2 5 7 7 7 7 6 6 6 7 8 9 9 8 7 7 6 5 4 4 4 4 5 6 7 7
6 6 6 5 6 7 9 11 13 14 13 10 8 8 9 9 9 8 9 11 12 9 6 6 8 9 9 10 10 8 6 4 4 4 5 5 5 5 5 5 6 6 6 6 7 10 11 10 9 10 11 10 11 11 10 8 7 7 7 5 3 2 4 6 6 6 6 5 4 4 4 6 8 8 8 7 6 5 4 4 3 3 3 3 4 5 5
5 6 7 7 7 7 7 8 9 11 13 13 11 8 7 9 10 9 8 8 10 10 9 8 8 8 8 9 10 9 6 6 6 6 6 7 7 7 6 6 6 5 5 5 7 9 11 12 10 9 9 10 11 12 12 11 9 8 8 7 6 5 5 6 6 6 6 5 4 3 2 2 4 5 6 5 5 5 4 3 2 2 2 1 1 3 4
9 9 10 9 8 7 7 7 7 8 10 13 12 10 9 9 10 10 9 8 9 10 10 10 10 9 9 9 9 8 7 8 8 8 8 8 8 7 7 6 7 7 7 6 6 7 8 10 10 9 9 11 13 14 14 14 12 11 10 9 8 7 8 7 7 7 7 6 4 3 2 2 1 2 3 3 3 4 4 3 3 2 2 1 1 1 1
11 10 9 8 8 6 6 6 7 8 10 12 13 12 10 9 9 10 10 10 10 10 10 11 11 11 10 10 10 10 10 10 10 9 9 10 9 8 8 7 7 8 9 7 6 6 7 8 9 9 11 13 14 15 16 15 13 12 12 12 11 11 11 10 8 8 7 6 4 2 2 2 2 0 1 2 2 2 2 2 2 2 3 3 3 2 2
9 9 7 7 7 6 5 6 8 9 10 12 13 12 10 10 11 12 13 12 12 12 11 11 11 11 11 11 12 12 12 11 10 10 10 11 10 10 9 8 6 7 7 7 7 8 9 9 9 11 13 14 14 14 13 12 10 10 11 12 13 13 13 12 10 9 7 5 3 2 2 3 3 2 1 1 2 2 2 3 3 2 3 3 4 4 4
8 8 7 7 6 5 5 7 8 9 10 11 11 10 9 9 10 12 12 12 12 11 10 10 11 12 13 13 13 13 13 13 11 10 10 10 9 8 8 7 6 5 6 7 8 8 9 9 9 11 12 12 12 11 9 8 8 8 9 10 11 12 13 12 10 9 7 4 3 2 2 2 3 3 2 2 2 3 3 3 3 3 3 4 4 5 6
7 8 8 7 6 6 7 7 8 9 9 10 9 7 8 9 10 10 10 10 11 11 11 10 10 10 12 14 14 13 13 14 13 10 9 9 9 8 8 8 7 6 7 8 8 8 8 8 9 10 10 10 9 8 7 7 7 7 8 8 9 9 10 9 8 7 6 5 4 2 2 2 2 3 3 3 3 3 3 3 3 3 3 3 3 4 5
5 6 7 6 5 6 7 7 7 7 8 9 8 8 8 9 10 10 9 9 10 11 11 11 11 10 11 12 14 15 15 15 14 12 10 8 7 6 7 7 7 7 7 7 8 8 8 8 8 8 8 7 7 6 6 7 7 6 6 6 6 7 7 6 6 5 5 4 4 3 2 1 2 2 3 3 3 3 3 3 3 4 4 4 3 4 5
5 6 6 7 8 8 7 7 7 7 7 7 7 8 9 9 10 10 10 10 11 11 10 11 12 12 12 13 14 15 16 16 16 14 12 10 7 5 4 5 6 6 7 7 7 8 8 8 9 8 7 6 6 5 5 6 6 5 5 5 5 5 5 4 4 4 4 3 3 2 2 1 0 1 1 2 2 2 3 3 3 3 4 4 3 3 4
Wind_Direction
341 331 54 95 100 101 98 105 98 82 75 73 74 43 328 127 123 141 147 126 109 117 121 116 127 126 114 111 110 107 105 105 106 103 100 101 106 112 114 112 112 116 119 118 119 121 119 118 114 106 103 102 102 110 130 154 170 177 180 188 189 190 205 209 200 186 186 197 205 205 203 202 200 200 202 206 201 194 192 188 187 191 194 199 205 206 205
10 5 357 23 101 96 72 62 54 60 85 93 90 79 71 74 75 100 117 103 80 48 52 85 97 101 103 100 99 100 102 104 104 100 96 94 98 103 107 110 109 108 110 112 112 114 114 114 112 109 108 111 112 108 107 125 146 148 147 159 176 185 190 186 185 185 187 197 204 204 202 202 204 206 205 206 203 195 194 195 193 198 204 204 207 209 209
17 13 353 346 98 96 73 46 21 12 55 87 90 97 98 81 66 79 94 89 66 9 9 60 83 94 96 91 88 90 94 99 100 97 93 93 94 96 99 101 102 102 102 104 107 109 109 112 114 112 110 112 113 108 103 109 116 116 122 136 147 162 172 170 171 175 178 189 198 202 204 205 207 208 207 209 209 198 195 200 203 208 213 212 214 218 218
355 4 343 318 95 89 65 35 8 348 2 91 102 118 123 118 118 114 97 89 93 356 16 57 64 74 80 76 76 82 84 90 95 93 91 92 94 95 95 97 99 99 97 97 99 102 106 111 111 111 113 111 108 108 107 108 109 109 113 119 123 129 144 159 170 173 176 186 196 203 208 209 208 208 209 214 214 205 201 208 216 220 222 222 225 229 231
319 329 316 295 47 65 44 16 348 321 294 119 90 56 60 101 130 138 140 136 102 37 52 68 58 57 62 60 67 81 84 85 88 90 91 93 95 95 94 95 96 96 95 94 96 98 102 105 105 108 115 110 102 104 107 108 108 107 104 107 111 113 117 129 145 158 169 182 195 205 210 211 212 214 217 219 217 210 206 209 218 225 228 229 230 233 233
191 304 321 350 49 58 51 354 336 317 301 92 85 68 44 52 91 114 121 113 90 67 68 81 78 73 72 72 78 89 92 90 89 90 91 92 95 96 94 94 93 93 93 92 93 95 97 99 102 106 109 106 102 103 105 104 104 104 103 103 104 106 109 113 118 129 139 143 150 164 179 191 202 212 218 220 219 219 221 221 222 228 235 236 235 235 235
152 325 7 49 77 115 183 356 357 5 30 70 81 70 45 64 96 101 100 102 106 107 105 103 101 95 90 87 87 89 91 92 92 92 91 89 91 93 94 95 92 91 92 92 92 93 93 97 104 107 108 109 108 107 106 104 104 103 103 102 100 100 102 103 104 111 121 126 127 128 131 140 151 166 188 205 214 223 233 235 234 238 244 246 244 244 244
123 79 59 99 169 273 326 356 5 22 26 37 61 59 30 30 85 106 107 108 116 120 118 113 108 102 95 88 81 84 89 90 90 90 89 89 88 88 92 96 96 93 92 91 92 94 96 98 103 106 110 114 114 112 110 109 108 107 107 106 104 102 100 98 97 99 105 112 116 119 124 131 139 144 150 166 187 205 224 239 243 244 249 253 252 253 253
113 106 80 85 101 325 346 357 356 17 345 303 49 84 38 7 46 116 121 122 128 126 123 123 117 106 95 82 71 82 91 91 91 88 85 84 86 87 91 99 104 100 94 90 91 97 104 104 99 99 107 116 119 119 118 116 114 116 116 112 110 110 107 104 103 104 108 111 112 115 121 130 138 144 153 165 183 206 222 234 238 238 241 244 248 257 264
83 106 96 83 136 209 263 282 291 298 263 246 207 106 46 20 117 141 134 130 138 137 135 139 131 109 91 77 74 100 103 103 102 97 90 88 87 88 92 97 104 104 98 94 92 95 105 102 92 90 99 112 120 119 117 116 117 120 121 116 115 119 119 116 115 117 124 131 131 130 134 144 156 167 181 192 203 211 217 223 227 231 235 235 238 249 263
59 99 109 123 174 203 248 264 281 308 288 263 189 87 355 175 150 152 143 138 148 151 151 156 154 120 92 111 161 132 120 111 105 101 98 96 94 94 94 95 99 100 100 101 102 104 105 93 81 80 91 107 120 115 108 110 112 109 109 110 116 126 132 138 147 156 163 172 178 176 176 180 184 189 196 205 214 219 223 230 234 239 246 249 252 255 256
73 87 99 105 136 240 263 272 293 315 312 293 136 125 249 169 159 165 156 148 155 161 161 164 170 125 130 146 147 134 122 111 107 105 102 102 100 99 96 90 91 97 103 111 114 110 99 83 70 66 68 87 111 101 90 94 87 51 50 19 302 263 251 233 224 226 228 230 233 233 231 229 227 226 225 227 230 233 236 240 242 244 249 253 256 256 252
64 83 106 104 240 268 298 305 310 322 330 341 162 223 214 155 156 167 162 155 159 165 162 146 106 107 124 129 129 124 116 109 107 105 102 106 108 104 99 90 84 94 102 111 113 103 91 82 73 56 26 15 53 55 34 9 355 344 326 305 288 276 271 263 254 251 250 250 250 250 250 249 248 247 245 245 245 246 246 247 247 247 247 248 251 250 248
33 90 93 66 183 336 333 319 321 355 36 192 205 189 150 146 151 158 159 162 166 151 127 118 117 122 128 128 127 125 121 117 115 117 120 121 119 117 113 99 77 81 89 95 100 97 89 80 74 36 308 306 329 333 315 324 335 316 298 289 284 280 278 276 271 267 264 261 259 258 256 254 254 252 251 250 251 252 253 253 254 253 251 250 250 250 249
40 75 52 63 193 331 340 328 323 15 41 173 128 95 107 126 133 134 135 145 149 136 124 121 126 131 133 133 133 132 131 129 127 129 131 128 125 125 121 104 84 75 75 80 81 77 70 56 28 332 295 296 302 294 288 297 298 290 288 288 287 286 286 285 285 284 279 275 271 267 264 262 261 259 256 255 254 253 254 255 255 256 255 253 252 251 251
71 98 50 75 223 338 5 30 81 51 86 131 120 103 97 103 111 114 113 118 130 133 129 126 128 130 131 134 137 136 135 137 136 132 129 127 130 133 126 114 108 101 93 89 82 73 61 43 15 351 342 337 332 326 329 325 308 298 297 296 294 294 293 291 292 290 287 284 281 278 275 271 269 268 265 263 260 258 256 255 255 255 256 256 254 254 253
67 99 121 130 92 49 54 70 84 88 102 118 119 111 103 100 106 111 111 112 120 127 128 126 125 126 128 132 135 135 133 135 139 135 120 117 128 139 139 133 132 129 116 102 93 90 81 62 52 43 27 18 12 5 355 341 324 312 306 301 298 297 295 295 296 295 293 292 289 286 284 281 278 276 274 270 268 265 262 259 258 258 258 258 258 257 257
78 78 97 108 84 74 75 81 87 93 101 109 113 111 105 102 107 112 112 114 117 120 123 122 118 118 121 122 122 124 122 120 121 114 105 109 128 141 137 126 117 107 100 89 83 87 85 71 58 46 33 30 28 21 10 356 345 335 323 311 303 300 299 300 300 298 296 296 294 292 291 289 286 284 280 277 275 272 269 266 263 262 262 261 261 260 260
92 78 106 114 97 93 93 93 94 96 99 103 106 106 104 106 111 113 114 116 117 119 120 116 110 109 113 112 111 113 111 108 107 102 101 112 129 132 115 103 91 59 47 59 72 80 78 61 41 27 26 30 29 22 12 1 352 347 339 326 312 304 302 301 301 303 307 308 307 307 305 301 296 291 285 281 277 275 273 271 267 265 264 263 263 263 262
68 105 138 125 111 109 110 109 108 108 108 107 106 105 108 112 114 116 120 125 128 129 127 124 120 116 113 114 118 120 116 108 101 92 91 105 115 104 85 77 37 9 13 46 72 78 68 44 26 21 28 32 26 17 8 359 353 349 345 338 327 318 314 313 313 316 319 320 318 315 311 309 307 304 297 289 282 277 274 274 272 270 268 266 266 266 266
77 90 124 118 99 93 110 119 119 118 117 115 110 109 113 117 119 120 124 129 135 136 136 138 138 132 128 130 133 132 127 119 111 108 119 126 105 87 80 38 3 8 53 97 90 86 65 34 28 32 32 27 19 11 5 359 356 352 348 344 339 331 323 318 316 316 317 317 316 313 311 310 309 307 304 300 294 286 279 276 275 274 272 270 269 268 268
133 167 158 142 112 110 136 132 128 127 124 122 121 125 129 131 131 132 130 130 133 136 139 142 136 131 133 140 142 140 138 136 134 149 173 176 167 149 143 25 28 45 78 92 85 78 57 44 43 37 25 17 10 4 0 358 1 3 358 353 348 340 336 332 326 324 322 320 319 317 315 313 309 306 304 300 294 288 281 274 271 272 272 270 269 268 267
184 173 166 154 134 143 152 143 137 135 128 123 125 128 129 130 133 138 137 136 136 137 142 145 137 130 132 140 144 144 144 146 142 140 160 176 180 180 201 188 93 75 80 84 72 62 61 60 47 23 10 3 359 358 355 354 1 7 4 358 356 352 351 350 344 339 336 333 330 327 324 321 320 318 316 310 298 286 280 278 275 271 269 267 267 267 266
123 152 161 149 134 141 151 149 145 139 130 124 123 123 124 122 122 128 135 137 137 137 137 141 145 144 143 148 157 158 158 167 170 150 151 170 175 173 186 196 179 142 137 120 83 77 77 68 25 359 353 347 349 354 352 350 356 1 356 351 351 348 345 346 344 342 341 340 338 334 330 328 326 324 322 318 312 304 298 296 293 287 279 274 268 265 263
123 156 166 151 140 145 153 155 154 152 147 136 125 125 130 127 120 123 131 138 144 145 141 140 145 158 165 165 177 188 184 187 198 198 179 160 162 174 190 209 225 238 261 272 174 111 70 35 359 340 338 341 346 350 350 349 350 350 346 339 335 332 331 333 335 337 339 340 338 336 335 335 333 331 328 324 321 319 318 318 316 310 300 290 279 270 265
123 136 142 132 129 138 145 143 143 150 157 149 131 129 134 136 134 133 134 144 158 163 158 151 147 151 165 169 177 193 202 209 223 227 214 178 167 179 197 215 226 243 271 267 202 166 59 26 9 336 332 345 347 347 348 346 344 347 356 358 345 333 330 329 331 336 338 337 337 341 347 349 345 342 340 337 332 330 328 328 330 330 322 311 298 282 272
122 129 132 123 123 137 147 144 140 143 149 146 139 136 136 141 152 151 134 136 150 156 155 153 145 138 148 147 87 190 206 209 212 209 197 176 171 179 196 213 226 261 281 250 198 176 59 32 25 337 333 344 344 344 344 341 340 352 14 19 5 350 340 335 337 340 339 337 343 355 0 357 351 346 344 342 339 335 332 332 334 338 338 335 329 310 284
127 136 136 127 125 136 144 147 145 143 139 135 134 137 136 143 165 169 149 139 144 143 137 133 128 117 113 61 15 1 218 196 195 196 195 185 175 179 196 211 229 271 278 223 187 175 59 24 7 319 324 336 338 339 337 335 338 353 8 11 3 353 347 342 341 340 339 346 358 3 3 1 357 352 349 348 346 343 340 336 334 334 336 339 340 334 307
120 122 124 125 130 132 134 143 150 149 144 137 137 144 150 153 166 172 166 158 156 151 139 131 125 104 79 34 346 333 317 210 208 225 238 250 244 234 233 229 237 267 265 219 189 175 165 342 322 305 314 326 330 331 330 330 336 349 358 1 358 353 350 349 347 346 354 5 6 3 5 6 4 1 2 6 5 360 354 348 342 338 337 338 337 332 309
129 130 132 139 147 149 154 165 172 171 160 147 144 154 171 180 179 174 170 169 173 174 166 160 163 172 319 301 298 295 284 292 300 274 265 265 260 257 255 250 250 261 253 223 194 178 186 248 272 280 304 319 323 323 322 323 333 345 353 355 354 355 356 355 354 359 10 10 6 6 8 9 7 6 10 14 13 9 4 1 358 353 347 342 336 328 314
140 139 141 149 154 156 162 171 178 179 168 155 152 158 171 186 190 183 178 178 181 183 179 176 190 316 317 289 275 271 266 281 293 287 281 276 267 261 257 251 249 250 239 213 192 185 202 235 249 264 296 314 318 315 314 320 334 346 353 354 355 358 0 358 358 9 10 5 4 6 7 7 6 4 5 7 6 2 358 358 1 3 359 352 348 345 336
153 148 145 153 160 165 175 186 187 183 179 179 181 182 182 184 183 181 182 182 180 180 182 192 304 330 307 269 264 270 279 286 286 279 275 274 269 264 257 245 238 237 229 210 194 194 211 231 237 252 290 312 315 310 310 326 341 348 353 357 359 1 360 353 348 352 356 357 357 356 0 4 3 359 358 359 354 350 350 356 7 16 18 18 21 20 10
187 178 172 169 167 175 203 210 195 186 184 188 196 200 202 198 182 177 182 186 184 188 206 255 308 306 277 259 263 276 285 287 284 276 267 263 262 262 256 238 227 226 223 211 200 202 216 228 227 248 294 309 309 302 309 334 345 346 350 359 3 1 356 345 329 329 346 350 342 341 348 354 353 353 358 356 350 347 353 6 19 26 28 31 34 32 27
210 191 185 180 170 162 155 159 172 179 181 185 194 201 206 207 196 183 183 191 202 232 268 287 290 276 259 255 267 286 292 288 280 269 259 254 254 258 255 237 221 216 212 205 201 206 217 220 216 258 294 296 292 295 315 338 345 343 350 2 4 358 349 335 322 329 349 348 339 340 344 345 346 354 4 3 359 1 9 20 28 32 34 36 38 38 40
212 205 205 198 188 185 176 153 156 173 187 196 204 210 210 207 207 208 214 227 247 269 276 271 263 256 253 259 278 299 306 298 282 268 256 251 251 253 254 243 222 210 202 197 198 206 213 213 219 266 281 275 273 290 320 339 342 340 352 6 5 358 347 329 318 321 333 339 341 342 338 337 343 0 14 16 18 21 23 26 30 34 36 38 39 44 53
192 169 165 173 177 185 193 172 154 161 182 204 219 226 220 208 211 220 227 233 241 251 254 252 252 253 254 264 294 328 344 347 335 296 262 255 256 254 254 249 229 211 202 199 201 207 210 211 223 252 258 257 264 284 314 334 336 336 354 8 6 3 355 334 324 322 319 321 329 333 330 333 347 15 25 28 33 33 29 29 30 31 34 36 40 50 62
173 153 148 159 168 189 210 199 182 182 201 217 225 228 227 223 222 223 224 227 232 239 245 248 250 252 255 262 285 315 321 326 336 332 298 273 265 258 253 249 236 217 207 203 204 208 210 215 230 242 245 251 262 278 304 321 322 330 355 5 5 8 5 347 334 329 317 313 321 333 337 345 18 45 37 37 44 41 33 31 31 34 38 39 41 50 61
188 185 175 187 212 256 238 216 212 229 248 255 238 225 232 236 227 217 217 221 228 238 250 253 247 244 252 263 278 297 302 301 308 318 311 292 278 266 252 245 237 221 208 203 203 206 209 217 234 239 241 249 260 273 288 296 302 322 352 359 2 9 9 356 335 321 319 329 352 6 8 19 46 62 50 50 53 47 38 36 39 44 47 46 45 49 56
155 178 179 186 196 230 264 241 229 250 270 271 252 227 232 238 225 214 216 224 233 242 254 257 245 235 242 261 282 297 298 290 294 311 313 299 286 272 252 236 226 214 204 199 201 205 209 218 229 232 237 251 264 267 264 266 282 312 338 348 359 7 9 5 359 356 11 35 48 51 45 45 54 62 61 58 56 52 47 45 47 51 53 53 54 58 61
338 268 246 221 214 225 261 254 236 247 264 259 242 225 227 246 247 231 226 229 238 246 253 250 239 234 246 270 283 284 282 278 286 310 319 308 291 275 255 235 218 205 199 198 203 208 212 218 222 225 235 251 255 245 228 232 260 294 311 328 354 6 8 9 13 24 42 55 62 64 59 56 61 68 69 63 61 61 58 53 53 56 59 59 60 65 68
321 316 306 265 225 219 250 293 259 225 243 251 247 238 236 245 252 243 230 231 239 247 251 248 243 246 262 282 284 277 275 275 284 311 324 314 289 267 252 231 209 198 196 200 207 211 213 215 217 219 225 232 229 213 204 219 245 269 285 307 352 7 8 6 9 19 31 44 56 62 62 62 66 74 81 82 76 70 62 53 48 50 56 60 60 59 59
321 316 309 274 236 233 248 260 242 211 232 258 260 258 258 251 239 231 234 246 255 259 260 258 255 256 265 274 276 283 293 290 280 296 321 315 274 247 239 214 196 193 196 204 212 215 213 211 210 210 211 212 207 198 203 230 245 247 244 272 339 5 5 360 359 8 20 32 44 53 60 65 69 76 86 92 89 78 63 44 29 26 41 59 64 59 55
322 318 309 289 266 256 253 247 238 235 244 255 253 255 261 260 247 236 236 243 252 260 262 255 253 256 260 258 260 283 316 313 271 273 306 304 254 241 233 195 182 185 196 209 217 220 220 217 210 204 203 203 201 199 209 235 236 219 209 224 272 341 349 349 354 3 11 18 28 38 53 67 74 78 82 86 89 87 75 56 37 22 26 50 65 63 56
305 305 304 297 286 275 265 255 248 243 241 244 249 253 251 250 253 257 253 245 243 245 247 248 252 258 261 257 256 272 310 322 284 276 290 283 261 257 255 228 206 210 222 230 231 230 232 232 225 212 205 203 202 203 211 224 223 214 215 223 230 267 310 325 342 358 2 360 1 14 37 58 72 79 82 83 88 92 88 75 62 47 35 50 78 84 73
290 292 298 298 287 273 271 275 269 255 245 243 248 260 261 249 247 259 270 262 249 241 240 247 256 260 261 261 259 264 289 310 302 290 285 279 270 267 267 258 246 241 244 252 254 248 242 241 240 230 215 206 205 206 213 222 226 224 224 225 230 249 275 295 317 337 343 341 338 343 7 35 62 82 89 91 95 98 99 94 83 71 54 45 78 95 94
286 287 290 292 288 278 274 280 284 276 262 252 249 258 268 258 244 246 259 267 261 250 244 250 258 261 262 263 261 261 275 292 294 290 285 282 278 278 280 272 255 247 256 274 281 266 248 244 245 238 218 206 205 209 216 224 230 232 231 233 241 252 262 276 298 317 327 334 341 347 340 325 334 101 103 103 107 108 109 114 117 118 128 146 165 150 134
289 288 287 287 286 281 272 265 263 264 263 257 251 252 259 262 256 252 253 258 259 255 251 251 255 258 260 262 263 264 269 275 279 281 282 283 281 282 288 285 261 248 256 274 281 260 240 234 232 222 208 202 205 212 218 224 231 236 236 237 241 248 257 269 286 301 314 326 340 356 3 360 353 37 132 143 144 139 140 147 150 153 162 168 176 189 198
295 292 291 289 283 274 265 262 258 254 254 256 254 248 247 256 264 264 262 258 254 253 254 255 255 254 254 256 259 261 263 266 272 278 279 279 280 279 282 285 276 256 255 266 266 247 231 222 213 204 200 201 207 212 218 225 232 235 234 234 238 244 253 264 276 287 298 314 323 333 3 17 12 349 299 218 204 205 205 206 212 214 207 203 208 214 219
299 287 286 288 285 269 258 265 270 265 263 267 264 252 246 258 271 273 272 265 253 247 252 262 262 255 251 252 254 254 251 253 266 281 284 280 275 270 272 286 297 280 256 253 248 233 220 210 201 196 197 204 210 214 221 233 240 236 229 228 233 240 247 258 268 277 285 297 305 313 343 1 350 329 310 274 250 249 245 234 231 229 220 219 226 231 233
294 276 274 284 288 271 259 272 286 281 270 269 267 259 258 268 272 273 273 267 253 247 253 264 267 262 255 252 253 253 247 243 248 265 281 283 274 264 265 280 294 283 258 245 233 219 209 203 198 195 199 205 209 213 220 230 233 230 224 225 230 236 242 250 261 271 282 295 305 311 324 324 304 293 289 283 273 269 267 269 270 266 255 244 238 235 236
299 274 262 266 274 265 259 274 296 295 276 265 262 263 267 270 266 263 264 263 257 256 262 268 271 273 268 258 252 250 245 238 237 247 264 278 280 276 276 284 286 274 252 234 219 210 206 203 198 197 201 205 206 210 216 217 213 207 206 212 223 233 240 248 258 267 278 293 306 311 314 309 281 263 264 271 276 275 272 271 271 274 275 272 261 244 232
312 296 277 266 263 260 256 264 280 289 284 270 261 263 271 272 265 259 257 256 254 257 262 266 268 273 273 267 260 254 246 238 234 237 247 258 268 276 285 291 285 270 252 234 219 212 212 207 201 199 203 205 204 205 209 208 205 200 193 191 198 209 218 227 241 253 262 273 289 303 316 328 299 232 237 250 261 270 273 271 269 269 268 266 259 243 227